Kalamata, Greece

7:11 AM EEST on April 24, 2017 (GMT +0300)
Kalamata Air Base

Weather History for LGKL - October, 2012

Change the Weather History Date:

Sunday, October 28, 2012

  Actual Average Record
Temperature  
Mean Temperature 76 °F -  
Max Temperature 78 °F 69 °F 78 °F (1999)
Min Temperature 73 °F 50 °F 44 °F (1996)
Cooling Degree Days 10    
Growing Degree Days 26 (Base 50)    
Moisture  
Dew Point 65 °F    
Average Humidity 69    
Maximum Humidity 78    
Minimum Humidity 61    
Precipitation  
Precipitation 0.00 in 0.18 in - ()
Sea Level Pressure  
Sea Level Pressure 29.80 in    
Wind  
Wind Speed 11 mph ()    
Max Wind Speed 14 mph    
Max Gust Speed 28 mph    
Visibility 6.2 miles    
Events Rain    
Averages and records for this station are not official NWS values.
T = Trace of Precipitation, MM = Missing Value Source: Averaged Metar Reports

Daily Weather History Graph

Daily Weather History Graph

Search for Another Location

Airport or City:

Trip Planner

Search our weather history database for the weather conditions in past years. The results will help you decide how hot, cold, wet, or windy it might be!

Date:

Astronomy

Oct. 28, 2012 Rise Set
Actual Time 6:52 AM EET 5:38 PM EET
Civil Twilight 6:25 AM EET 6:05 PM EET
Nautical Twilight 5:55 AM EET 6:35 PM EET
Astronomical Twilight 5:24 AM EET 7:05 PM EET
Moon 4:45 PM EET (10/28) 5:28 AM EET (10/28)
Length of Visible Light 11h 39m
Length of Day
10h 46m
Waxing Gibbous, 98% of the Moon is Illuminated
Oct 28
Waxing Gibbous
Oct 29
Full
Nov 7
Last Quarter
Nov 14
New
Nov 20
First Quarter

Hourly Weather History & Observations

Time (EET) Temp. Dew Point Humidity Pressure Visibility Wind Dir Wind Speed Gust Speed Precip Events Conditions
2:50 AM 73.4 °F 64.4 °F 73% 29.80 in 6.2 mi SSE 12.7 mph - N/A   Mostly Cloudy
4:50 AM 73.4 °F 64.4 °F 73% 29.80 in 6.2 mi SSE 11.5 mph - N/A   Mostly Cloudy
5:20 AM 73.4 °F 64.4 °F 73% 29.80 in 6.2 mi SSE 10.4 mph - N/A   Mostly Cloudy
5:50 AM 73.4 °F 64.4 °F 73% 29.80 in 6.2 mi SSE 11.5 mph 23.0 mph N/A   Mostly Cloudy
6:20 AM 73.4 °F 64.4 °F 73% 29.77 in 6.2 mi SSE 12.7 mph 24.2 mph N/A   Mostly Cloudy
6:50 AM 73.4 °F 64.4 °F 73% 29.77 in 6.2 mi SSE 12.7 mph - N/A   Overcast
7:20 AM 75.2 °F 66.2 °F 73% 29.80 in 6.2 mi South 11.5 mph 23.0 mph N/A   Mostly Cloudy
7:50 AM 75.2 °F 64.4 °F 69% 29.80 in 6.2 mi SSE 13.8 mph 27.6 mph N/A   Mostly Cloudy
8:20 AM 73.4 °F 66.2 °F 78% 29.83 in 6.2 mi South 12.7 mph - N/A   Mostly Cloudy
8:50 AM 75.2 °F 66.2 °F 73% 29.83 in 6.2 mi South 11.5 mph - N/A   Mostly Cloudy
9:20 AM 73.4 °F 66.2 °F 78% 29.83 in 6.2 mi SSE 13.8 mph - N/A Rain Light Rain
9:50 AM 75.2 °F 66.2 °F 73% 29.83 in 6.2 mi SSE 12.7 mph - N/A   Mostly Cloudy
10:20 AM 77.0 °F 66.2 °F 69% 29.83 in 6.2 mi SSE 12.7 mph - N/A   Mostly Cloudy
10:50 AM 77.0 °F 62.6 °F 61% 29.83 in 6.2 mi SSE 13.8 mph - N/A   Mostly Cloudy
11:20 AM 77.0 °F 62.6 °F 61% 29.83 in 6.2 mi South 12.7 mph 24.2 mph N/A   Mostly Cloudy
11:50 AM 77.0 °F 62.6 °F 61% 29.83 in 6.2 mi SSE 13.8 mph - N/A   Mostly Cloudy
12:20 PM 77.0 °F 62.6 °F 61% 29.80 in 6.2 mi South 12.7 mph - N/A   Mostly Cloudy
12:50 PM 77.0 °F 64.4 °F 65% 29.83 in 6.2 mi South 12.7 mph - N/A   Mostly Cloudy
1:20 PM 77.0 °F 64.4 °F 65% 29.80 in 6.2 mi South 13.8 mph - N/A   Mostly Cloudy
1:50 PM 77.0 °F 64.4 °F 65% 29.80 in 6.2 mi South 12.7 mph - N/A   Mostly Cloudy
2:20 PM 78.8 °F 64.4 °F 61% 29.80 in 6.2 mi South 13.8 mph - N/A   Mostly Cloudy
2:50 PM 77.0 °F 64.4 °F 65% 29.77 in 6.2 mi South 12.7 mph - N/A   Mostly Cloudy
3:20 PM 77.0 °F 64.4 °F 65% 29.77 in 6.2 mi South 13.8 mph - N/A   Mostly Cloudy
3:50 PM 77.0 °F 64.4 °F 65% 29.77 in 6.2 mi South 12.7 mph - N/A   Mostly Cloudy
4:50 PM 77.0 °F 64.4 °F 65% 29.77 in 6.2 mi South 12.7 mph - N/A   Mostly Cloudy
5:20 PM 75.2 °F 64.4 °F 69% 29.77 in 6.2 mi South 13.8 mph 25.3 mph N/A   Mostly Cloudy
5:50 PM 75.2 °F 64.4 °F 69% 29.77 in 6.2 mi South 12.7 mph - N/A   Mostly Cloudy
6:20 PM 75.2 °F 66.2 °F 73% 29.77 in 6.2 mi South 11.5 mph - N/A   Mostly Cloudy
6:50 PM 75.2 °F 64.4 °F 69% 29.77 in 6.2 mi South 12.7 mph - N/A   Mostly Cloudy
7:20 PM 75.2 °F 64.4 °F 69% 29.80 in 6.2 mi SSW 11.5 mph - N/A   Mostly Cloudy
10:50 PM 75.2 °F 64.4 °F 69% 29.77 in 6.2 mi South 11.5 mph - N/A   Scattered Clouds